FW2156 Weather Reports


Display with metric or nautical units.
time (UTC)temp
F
wind
direction
speed
MPH
gust
MPH
rain 1hr
in
rain 24hr
in
rain mn
in
humidity
%
barometer
mb
20260503032724 60 211 0.0 0.0 0.00 0.00 0.00 55 1010.8
20260503032224 61 206 0.0 1.0 0.00 0.00 0.00 54 1010.5
20260503031725 61 292 2.0 2.0 0.00 0.00 0.00 54 1010.5
20260503031224 62 242 0.0 1.0 0.00 0.00 0.00 53 1010.5
20260503030723 62 267 2.0 2.0 0.00 0.00 0.00 52 1010.8
20260503030224 62 299 2.0 2.0 0.00 0.00 0.00 52 1010.5
20260503025726 62 289 1.0 2.0 0.00 0.00 0.00 52 1010.5
20260503025223 63 286 0.0 1.0 0.00 0.00 0.00 51 1010.5
20260503024728 63 287 1.0 2.0 0.00 0.00 0.00 51 1010.5
20260503024223 64 189 1.0 2.0 0.00 0.00 0.00 50 1010.5
20260503023726 64 208 1.0 1.0 0.00 0.00 0.00 50 1010.2
20260503023225 64 262 1.0 1.0 0.00 0.00 0.00 49 1010.2
20260503022726 64 139 1.0 2.0 0.00 0.00 0.00 48 1010.2
20260503022225 65 354 0.0 1.0 0.00 0.00 0.00 47 1010.5
20260503021726 65 221 0.0 0.0 0.00 0.00 0.00 47 1010.5
20260503021229 66 171 0.0 1.0 0.00 0.00 0.00 47 1010.5
20260503020656 67 341 0.0 0.0 0.00 0.00 0.00 47 1010.2
20260503020154 68 26 1.0 2.0 0.00 0.00 0.00 46 1010.5
20260503015653 68 252 1.0 3.0 0.00 0.00 0.00 45 1010.5
20260503015129 69 180 1.0 2.0 0.00 0.00 0.00 44 1010.5
20260503014623 69 216 0.0 1.0 0.00 0.00 0.00 42 1010.5
20260503014125 70 130 0.0 1.0 0.00 0.00 0.00 40 1010.5
20260503013623 70 175 2.0 2.0 0.00 0.00 0.00 39 1010.5
20260503013124 70 134 0.0 1.0 0.00 0.00 0.00 38 1010.5
20260503012626 71 157 1.0 2.0 0.00 0.00 0.00 39 1010.5
20260503012126 71 218 0.0 0.0 0.00 0.00 0.00 39 1010.5
20260503011627 71 264 1.0 2.0 0.00 0.00 0.00 38 1010.5
20260503011054 71 279 1.0 2.0 0.00 0.00 0.00 38 1010.8
20260503010549 71 259 2.0 2.0 0.00 0.00 0.00 37 1010.8
20260503010030 70 231 1.0 1.0 0.00 0.00 0.00 38 1010.8
20260503005529 70 285 1.0 2.0 0.00 0.00 0.00 37 1010.8
20260503005030 70 255 3.0 3.0 0.00 0.00 0.00 37 1011.2
20260503004529 70 196 0.0 0.0 0.00 0.00 0.00 40 1010.8
20260503004029 69 125 0.0 0.0 0.00 0.00 0.00 39 1010.8
20260503003530 69 357 0.0 1.0 0.00 0.00 0.00 39 1010.8
20260503003029 69 200 0.0 1.0 0.00 0.00 0.00 40 1010.8
20260503002530 69 221 0.0 1.0 0.00 0.00 0.00 40 1010.8
20260503002029 69 34 1.0 1.0 0.00 0.00 0.00 40 1011.2
20260503001529 69 123 0.0 1.0 0.00 0.00 0.00 41 1011.2
20260503001028 69 222 1.0 2.0 0.00 0.00 0.00 41 1011.2
20260503000528 69 85 1.0 2.0 0.00 0.00 0.00 41 1011.2
20260503000027 69 248 1.0 2.0 0.00 0.00 0.00 40 1011.2
20260502235528 69 218 0.0 0.0 0.00 0.00 0.00 40 1011.5
20260502235028 69 232 1.0 2.0 0.00 0.00 0.00 41 1011.2
20260502234527 69 263 1.0 2.0 0.00 0.00 0.00 40 1011.2
20260502234027 69 99 2.0 3.0 0.00 0.00 0.00 41 1011.5
20260502233528 69 88 3.0 3.0 0.00 0.00 0.00 40 1011.5
20260502233026 69 163 1.0 2.0 0.00 0.00 0.00 41 1011.5
20260502232527 70 121 2.0 2.0 0.00 0.00 0.00 41 1011.5
20260502232027 70 180 1.0 2.0 0.00 0.00 0.00 40 1011.5
20260502231528 70 174 1.0 2.0 0.00 0.00 0.00 41 1011.9
20260502231027 70 102 3.0 3.0 0.00 0.00 0.00 40 1011.9
20260502230526 70 110 1.0 1.0 0.00 0.00 0.00 40 1011.9
20260502230026 70 195 0.0 1.0 0.00 0.00 0.00 39 1011.9
20260502225525 70 199 3.0 5.0 0.00 0.00 0.00 40 1011.9
20260502225026 70 116 0.0 0.0 0.00 0.00 0.00 40 1011.9
20260502224527 69 283 2.0 3.0 0.00 0.00 0.00 40 1011.9
20260502224029 69 73 0.0 1.0 0.00 0.00 0.00 40 1012.2
20260502223527 69 117 2.0 3.0 0.00 0.00 0.00 42 1012.2
20260502223025 69 151 0.0 1.0 0.00 0.00 0.00 41 1012.5
20260502222528 68 17 0.0 1.0 0.00 0.00 0.00 41 1012.5
20260502222027 68 158 2.0 3.0 0.00 0.00 0.00 41 1012.5
20260502221526 68 284 1.0 1.0 0.00 0.00 0.00 42 1012.5
20260502221026 68 84 3.0 5.0 0.00 0.00 0.00 41 1012.9
20260502220525 68 137 1.0 2.0 0.00 0.00 0.00 43 1012.9
20260502220027 68 268 2.0 2.0 0.00 0.00 0.00 42 1012.9
20260502215524 68 46 2.0 3.0 0.00 0.00 0.00 43 1012.9
20260502215027 68 121 2.0 2.0 0.00 0.00 0.00 42 1012.9
20260502214525 68 233 1.0 1.0 0.00 0.00 0.00 43 1013.2
20260502214025 67 133 4.0 6.0 0.00 0.00 0.00 43 1013.2
20260502213454 67 177 0.0 1.0 0.00 0.00 0.00 42 1012.9
20260502212948 67 116 3.0 5.0 0.00 0.00 0.00 43 1013.2
20260502212441 67 176 4.0 5.0 0.00 0.00 0.00 43 1013.2
20260502211941 67 227 2.0 3.0 0.00 0.00 0.00 42 1012.9
20260502211441 67 157 1.0 2.0 0.00 0.00 0.00 43 1013.5
20260502210937 68 246 0.0 1.0 0.00 0.00 0.00 44 1013.2
20260502210439 68 223 0.0 1.0 0.00 0.00 0.00 43 1013.2
20260502205941 67 231 2.0 3.0 0.00 0.00 0.00 42 1013.5
20260502205438 67 130 0.0 1.0 0.00 0.00 0.00 43 1013.5
20260502204938 67 341 1.0 2.0 0.00 0.00 0.00 42 1013.9
20260502204440 66 193 0.0 1.0 0.00 0.00 0.00 43 1013.5
20260502203940 66 190 1.0 1.0 0.00 0.00 0.00 43 1013.9
20260502203439 65 103 2.0 3.0 0.00 0.00 0.00 43 1013.9
20260502202937 65 170 0.0 0.0 0.00 0.00 0.00 44 1014.2
20260502202439 65 222 2.0 3.0 0.00 0.00 0.00 44 1014.2
20260502201913 64 140 0.0 0.0 0.00 0.00 0.00 45 1014.2
20260502201411 65 133 1.0 1.0 0.00 0.00 0.00 46 1014.2
20260502200911 64 111 1.0 2.0 0.00 0.00 0.00 46 1014.2
20260502200414 64 244 1.0 1.0 0.00 0.00 0.00 45 1014.2
20260502195913 64 136 1.0 1.0 0.00 0.00 0.00 47 1014.2
20260502195414 64 85 2.0 3.0 0.00 0.00 0.00 47 1014.6
20260502194915 64 134 1.0 2.0 0.00 0.00 0.00 44 1014.6
20260502194413 63 211 0.0 1.0 0.00 0.00 0.00 45 1014.6
20260502193915 63 127 2.0 3.0 0.00 0.00 0.00 49 1014.6
20260502193413 63 328 0.0 1.0 0.00 0.00 0.00 45 1014.9
20260502192912 63 215 1.0 2.0 0.00 0.00 0.00 46 1014.9
20260502192412 62 137 1.0 3.0 0.00 0.00 0.00 47 1014.6
20260502191911 63 125 5.0 6.0 0.00 0.00 0.00 48 1014.6
20260502191415 63 80 1.0 2.0 0.00 0.00 0.00 48 1014.9
20260502190914 62 124 1.0 1.0 0.00 0.00 0.00 47 1015.2
20260502190417 62 247 0.0 1.0 0.00 0.00 0.00 47 1015.2
20260502185842 62 123 2.0 2.0 0.00 0.00 0.00 48 1014.9
20260502185340 62 258 2.0 3.0 0.00 0.00 0.00 47 1015.2
20260502184837 62 194 2.0 3.0 0.00 0.00 0.00 48 1015.2
20260502184315 62 174 0.0 1.0 0.00 0.00 0.00 48 1015.2
20260502183812 62 306 3.0 3.0 0.00 0.00 0.00 49 1015.2
20260502183312 61 277 1.0 1.0 0.00 0.00 0.00 47 1015.2
20260502182813 61 164 1.0 3.0 0.00 0.00 0.00 49 1015.2
20260502182313 61 108 2.0 2.0 0.00 0.00 0.00 50 1015.6
20260502181813 60 148 2.0 3.0 0.00 0.00 0.00 50 1015.6
20260502181314 60 71 0.0 1.0 0.00 0.00 0.00 49 1015.9
20260502180811 60 155 1.0 2.0 0.00 0.00 0.00 50 1015.6
20260502180312 60 147 1.0 2.0 0.00 0.00 0.00 50 1015.9
20260502170142 56 141 1.0 1.0 0.00 0.00 0.00 53 1016.3
20260502164139 54 142 0.0 1.0 0.00 0.00 0.00 56 1016.3
20260502163638 54 35 2.0 2.0 0.00 0.00 0.00 58 1016.6
20260502163118 53 100 2.0 2.0 0.00 0.00 0.00 59 1016.6
20260502162613 53 103 1.0 1.0 0.00 0.00 0.00 59 1016.6
20260502162113 53 140 1.0 1.0 0.00 0.00 0.00 58 1016.3
20260502161615 53 93 2.0 3.0 0.00 0.00 0.00 60 1016.6
20260502161045 52 101 3.0 3.0 0.00 0.00 0.00 63 1016.6
20260502160540 52 154 0.0 0.0 0.00 0.00 0.00 63 1016.6
20260502152039 50 283 0.0 1.0 0.00 0.00 0.00 68 1016.9
20260502151538 50 218 0.0 0.0 0.00 0.00 0.00 68 1016.9
20260502151039 50 229 0.0 1.0 0.00 0.00 0.00 70 1016.6
20260502150530 50 314 0.0 1.0 0.00 0.00 0.00 70 1016.6
20260502130539 47 228 0.0 0.0 0.00 0.00 0.00 73 1016.3
20260502123538 47 129 0.0 0.0 0.00 0.00 0.00 74 1016.3
20260502123042 47 161 0.0 0.0 0.00 0.00 0.00 73 1015.9
20260502122542 47 228 0.0 0.0 0.00 0.00 0.00 73 1016.3
20260502122043 48 228 0.0 0.0 0.00 0.00 0.00 72 1015.9
20260502121542 48 171 0.0 0.0 0.00 0.00 0.00 72 1015.9
20260502121025 48 228 0.0 0.0 0.00 0.00 0.00 72 1015.9
20260502120525 48 246 0.0 0.0 0.00 0.00 0.00 71 1015.9
20260502115523 48 249 0.0 0.0 0.00 0.00 0.00 71 1015.9
20260502115024 48 241 0.0 0.0 0.00 0.00 0.00 71 1015.9
20260502114526 48 239 0.0 0.0 0.00 0.00 0.00 71 1015.9
20260502114025 48 331 0.0 1.0 0.00 0.00 0.00 71 1015.9
20260502113522 48 187 0.0 0.0 0.00 0.00 0.00 71 1015.9
20260502113023 49 215 0.0 0.0 0.00 0.00 0.00 71 1015.9
20260502112524 49 358 0.0 1.0 0.00 0.00 0.00 71 1015.9
20260502112024 49 232 0.0 0.0 0.00 0.00 0.00 71 1015.9
20260502111522 49 216 0.0 0.0 0.00 0.00 0.00 70 1015.9
20260502111025 49 78 2.0 2.0 0.00 0.00 0.00 70 1015.9
20260502110542 49 325 0.0 1.0 0.00 0.00 0.00 69 1015.9
20260502110040 49 228 0.0 1.0 0.00 0.00 0.00 69 1015.9
20260502105541 49 240 1.0 1.0 0.00 0.00 0.00 68 1015.9
20260502105041 50 244 0.0 1.0 0.00 0.00 0.00 69 1016.3
20260502104539 50 231 0.0 1.0 0.00 0.00 0.00 68 1015.9
20260502104038 50 249 1.0 1.0 0.00 0.00 0.00 68 1015.9
20260502103541 50 255 0.0 0.0 0.00 0.00 0.00 69 1015.9
20260502103039 50 311 0.0 1.0 0.00 0.00 0.00 69 1015.9
20260502102621 50 250 0.0 1.0 0.00 0.00 0.00 70 1015.9
20260502102124 50 189 0.0 0.0 0.00 0.00 0.00 71 1015.9
20260502101642 50 4 0.0 0.0 0.00 0.00 0.00 70 1015.9
20260502101140 50 39 0.0 1.0 0.00 0.00 0.00 69 1016.3
20260502100624 50 335 1.0 2.0 0.00 0.00 0.00 69 1015.9
20260502100120 50 262 1.0 2.0 0.00 0.00 0.00 69 1015.6
20260502091119 51 279 1.0 1.0 0.00 0.00 0.00 69 1015.9
20260502090620 51 249 0.0 1.0 0.00 0.00 0.00 68 1015.9
20260502090118 51 233 2.0 2.0 0.00 0.00 0.00 67 1015.9
20260502071119 51 228 2.0 3.0 0.00 0.00 0.00 66 1015.9
20260502070621 51 247 1.0 1.0 0.00 0.00 0.00 66 1015.9
20260502070127 52 224 0.0 0.0 0.00 0.00 0.00 66 1015.6
20260502065616 52 232 0.0 0.0 0.00 0.00 0.00 65 1015.6
20260502065118 52 230 1.0 1.0 0.00 0.00 0.00 64 1015.6
20260502064619 52 241 0.0 1.0 0.00 0.00 0.00 63 1015.9
20260502064116 52 307 1.0 2.0 0.00 0.00 0.00 63 1015.9
20260502063620 52 257 1.0 2.0 0.00 0.00 0.00 63 1015.9
20260502063115 52 301 1.0 2.0 0.00 0.00 0.00 63 1015.9
20260502062615 52 327 2.0 3.0 0.00 0.00 0.00 63 1015.9
20260502062121 52 292 2.0 2.0 0.00 0.00 0.00 63 1015.9
20260502061615 52 273 2.0 3.0 0.00 0.00 0.00 64 1015.9
20260502061115 52 297 1.0 2.0 0.00 0.00 0.00 64 1015.9
20260502060614 52 249 1.0 1.0 0.00 0.00 0.00 65 1015.9
20260502060118 52 281 1.0 1.0 0.00 0.00 0.00 65 1015.9
20260502055616 52 262 1.0 1.0 0.00 0.00 0.00 64 1015.9
20260502055114 52 289 0.0 1.0 0.00 0.00 0.00 65 1015.6
20260502054614 52 256 0.0 1.0 0.00 0.00 0.00 65 1015.9
20260502054115 52 231 1.0 1.0 0.00 0.00 0.00 65 1015.9
20260502053617 52 224 0.0 1.0 0.00 0.00 0.00 65 1015.9
20260502053114 52 314 1.0 2.0 0.00 0.00 0.00 65 1015.6
20260502052615 52 72 0.0 0.0 0.00 0.00 0.00 65 1015.6
20260502052114 52 245 1.0 2.0 0.00 0.00 0.00 65 1015.6
20260502051617 52 106 1.0 2.0 0.00 0.00 0.00 65 1015.6
20260502051115 53 254 1.0 1.0 0.00 0.00 0.00 65 1015.2
20260502050613 53 263 1.0 2.0 0.00 0.00 0.00 65 1015.2
20260502050115 53 260 3.0 3.0 0.00 0.00 0.00 64 1015.6
20260502045612 53 297 1.0 2.0 0.00 0.00 0.00 64 1015.6
20260502045114 53 288 2.0 2.0 0.00 0.00 0.00 64 1015.6
20260502044613 53 248 1.0 1.0 0.00 0.00 0.00 64 1015.6
20260502044113 53 39 3.0 5.0 0.00 0.00 0.00 63 1015.2
20260502043613 53 311 1.0 2.0 0.00 0.00 0.00 63 1015.2
20260502043114 54 352 3.0 7.0 0.00 0.00 0.00 63 1015.2
20260502042616 54 92 0.0 1.0 0.00 0.00 0.00 62 1015.2
20260502042113 54 54 3.0 5.0 0.00 0.00 0.00 62 1015.2
20260502041613 54 349 4.0 7.0 0.00 0.00 0.00 62 1015.2
20260502041113 54 139 4.0 7.0 0.00 0.00 0.00 61 1014.9
20260502040614 55 144 1.0 2.0 0.00 0.00 0.00 61 1014.9
20260502040114 55 146 3.0 6.0 0.00 0.00 0.00 60 1014.9
20260502035612 55 136 2.0 3.0 0.00 0.00 0.00 60 1014.9
20260502035113 55 352 5.0 6.0 0.00 0.00 0.00 60 1014.9
20260502034613 55 61 4.0 6.0 0.00 0.00 0.00 60 1014.9
20260502034112 55 192 4.0 7.0 0.00 0.00 0.00 59 1014.9
20260502033614 55 26 4.0 7.0 0.00 0.00 0.00 59 1014.6
20260502033113 55 66 3.0 5.0 0.00 0.00 0.00 59 1014.9